Location: Caltech
(34.1382°N, 118.1253°W)
Time: 17:34:51
(UTC-07:00)

Cosmos 1758 Rocket - Visible Passes

Search period start: 27 March 2017 00:00
Search period end: 06 April 2017 00:00
Orbit: 603 x 636 km, 82.5° (Epoch: 26 March)

Date Brightness Start Highest point End Pass type
(mag) Time Alt. Az. Time Alt. Az. Time Alt. Az.
27 Mar 6.6 19:32:39 10° NW 19:35:53 21° W 19:39:07 10° SW visible
28 Mar 7.5 19:52:30 10° WNW 19:53:05 10° W 19:53:41 10° W visible
31 Mar 7.4 05:39:35 10° E 05:40:31 11° E 05:41:26 10° ENE visible
01 Apr 6.6 05:54:22 10° SE 05:57:43 21° E 06:01:04 10° NE visible
02 Apr 5.2 06:10:49 10° SSE 06:15:00 41° E 06:19:12 10° NNE visible
04 Apr 7.0 05:11:04 10° ESE 05:12:30 11° E 05:13:56 10° ENE visible
05 Apr 6.3 05:26:15 10° SE 05:29:43 22° E 05:33:10 10° NE visible
